View from above orbital plane
|
View from above satellite
|
Ground track
|
The orbit data is extracted from the following two-line orbital elements,
1 23190U 94045B 21060.32522267 -.00000044 00000-0 -22803-4 0 9994
2 23190 74.0293 20.2128 0018323 48.6011 311.6680 13.74097812332830
Epoch (UTC): | 01 March 2021 07:48:19 |
Eccentricity: | 0.0018323 |
inclination: | 74.0293° |
perigee height: | 971 km |
apogee height: | 998 km |
right ascension of ascending node: | 20.2128° |
argument of perigee: | 48.6011° |
revolutions per day: | 13.74097812 |
mean anomaly at epoch: | 311.6680° |
orbit number at epoch: | 33283 |
The dashed part of the orbit path shows where the satellite is in the earth's shadow,
|
|